KA5J Weather Reports


time (UTC)temp
C
wind
direction
speed
KPH
gust
KPH
rain 1hr
cm
rain 24hr
cm
rain mn
cm
humidity
%
barometer
mb
20260510190527 17 340 3.2 8.0 0.00 0.00 0.00 73 1019.9
20260510190051 17 337 4.8 8.0 0.00 0.00 0.00 72 1019.6
20260510185528 17 61 1.6 6.4 0.00 0.00 0.00 74 1019.5
20260510185027 17 72 3.2 8.0 0.00 0.00 0.00 72 1019.7
20260510184611 17 3 1.6 8.0 0.00 0.00 0.00 74 1019.9
20260510184029 17 122 1.6 12.9 0.00 0.00 0.00 74 1020.0
20260510183528 17 0 1.6 12.9 0.00 0.00 0.00 74 1020.1
20260510183046 17 351 3.2 12.9 0.00 0.00 0.00 73 1020.0
20260510182527 16 68 1.6 12.9 0.00 0.00 0.00 73 1019.9
20260510182027 16 48 3.2 16.1 0.00 0.00 0.00 74 1019.8
20260510181554 16 48 8.0 16.1 0.00 0.00 0.00 74 1019.4
20260510181026 16 75 8.0 16.1 0.00 0.00 0.00 74 1019.2
20260510180529 16 360 6.4 14.5 0.00 0.00 0.00 75 1019.2
20260510180058 16 235 6.4 14.5 0.00 0.00 0.00 76 1019.4
20260510175528 16 46 3.2 9.7 0.00 0.00 0.00 77 1019.4
20260510175028 16 340 0.0 16.1 0.00 0.00 0.00 76 1019.5
20260510174540 16 0 3.2 16.1 0.00 0.00 0.00 75 1019.3
20260510174027 16 11 4.8 14.5 0.00 0.00 0.00 74 1019.3
20260510173527 17 60 6.4 14.5 0.00 0.00 0.00 73 1019.5
20260510173038 17 44 3.2 14.5 0.00 0.00 0.00 72 1019.8
20260510172526 17 104 1.6 14.5 0.00 0.00 0.00 71 1020.0
20260510172028 17 352 4.8 14.5 0.00 0.00 0.00 69 1020.2
20260510171558 17 52 4.8 14.5 0.00 0.00 0.00 69 1020.1
20260510171026 17 56 3.2 14.5 0.00 0.00 0.00 69 1020.0
20260510170526 17 55 4.8 14.5 0.00 0.00 0.00 68 1020.0
20260510170038 17 329 3.2 11.3 0.00 0.00 0.00 70 1019.9
20260510165526 17 359 3.2 14.5 0.00 0.00 0.00 70 1019.6
20260510165029 18 333 4.8 17.7 0.00 0.00 0.00 70 1019.5
20260510164541 18 322 4.8 17.7 0.00 0.00 0.00 71 1019.5
20260510164027 18 321 3.2 14.5 0.00 0.00 0.00 73 1019.3
20260510163526 18 13 6.4 14.5 0.00 0.00 0.00 73 1019.2
20260510163043 18 80 6.4 11.3 0.00 0.00 0.00 74 1018.8
20260510162528 18 44 1.6 8.0 0.00 0.00 0.00 75 1018.7
20260510162029 17 50 1.6 8.0 0.00 0.00 0.00 75 1018.7
20260510161539 17 0 1.6 8.0 0.00 0.00 0.00 75 1018.3
20260510161026 17 336 0.0 8.0 0.00 0.00 0.00 76 1018.5
20260510160527 17 12 1.6 9.7 0.00 0.00 0.00 76 1018.5
20260510160048 17 0 0.0 9.7 0.00 0.00 0.00 76 1018.4
20260510155526 17 85 3.2 11.3 0.00 0.00 0.00 76 1018.0
20260510155026 17 327 1.6 12.9 0.00 0.00 0.00 76 1017.9
20260510154558 17 56 3.2 14.5 0.00 0.00 0.00 76 1017.6
20260510154028 17 31 6.4 14.5 0.00 0.00 0.00 76 1017.2
20260510153528 17 5 3.2 12.9 0.00 0.00 0.00 77 1017.1
20260510153048 17 62 1.6 12.9 0.00 0.00 0.00 77 1017.2
20260510152527 17 32 3.2 9.7 0.00 0.00 0.00 76 1017.2
20260510152027 17 324 1.6 6.4 0.00 0.00 0.00 76 1017.2
20260510151538 18 329 1.6 6.4 0.00 0.00 0.00 77 1017.0
20260510151027 18 44 0.0 4.8 0.00 0.00 0.00 78 1016.9
20260510150530 18 38 0.0 4.8 0.00 0.00 0.00 78 1016.8
20260510150056 17 311 0.0 4.8 0.00 0.00 0.00 78 1016.9
20260510145527 17 316 0.0 6.4 0.00 0.00 0.00 78 1016.7
20260510145028 17 68 0.0 6.4 0.00 0.00 0.00 80 1016.4
20260510144604 17 307 0.0 4.8 0.00 0.00 0.00 82 1016.3
20260510144031 17 0 0.0 1.6 0.00 0.00 0.00 82 1016.5
20260510143530 17 5 0.0 1.6 0.00 0.00 0.00 82 1016.5
20260510143041 17 0 0.0 3.2 0.00 0.00 0.00 81 1016.5
20260510142532 17 0 0.0 6.4 0.00 0.00 0.00 81 1016.2
20260510142027 17 172 0.0 6.4 0.00 0.00 0.00 81 1016.1
20260510141546 17 12 3.2 9.7 0.00 0.00 0.00 80 1016.3
20260510141030 17 321 1.6 9.7 0.00 0.00 0.00 82 1016.5
20260510140527 17 4 4.8 9.7 0.00 0.00 0.00 82 1016.8
20260510140039 17 79 1.6 6.4 0.00 0.00 0.00 82 1016.4
20260510135526 17 324 0.0 4.8 0.00 0.03 0.00 83 1016.5
20260510135028 17 0 0.0 4.8 0.00 0.03 0.00 82 1016.5
20260510134549 17 20 1.6 4.8 0.00 0.03 0.00 82 1016.6
20260510134029 17 304 0.0 3.2 0.00 0.03 0.00 83 1016.7
20260510133527 17 195 0.0 0.0 0.00 0.03 0.00 84 1016.5
20260510133043 17 0 0.0 0.0 0.00 0.03 0.00 85 1016.6
20260510132527 17 0 0.0 0.0 0.00 0.03 0.00 85 1016.8
20260510132027 17 0 0.0 0.0 0.00 0.03 0.00 85 1017.0
20260510131539 17 0 0.0 0.0 0.00 0.03 0.00 85 1016.7
20260510131028 17 0 0.0 0.0 0.00 0.03 0.00 84 1016.7
20260510130528 17 0 0.0 0.0 0.00 0.03 0.00 84 1016.8
20260510130042 17 0 0.0 1.6 0.00 0.03 0.00 85 1016.7
20260510125527 17 0 0.0 1.6 0.00 0.03 0.00 85 1016.8
20260510125030 17 0 0.0 0.0 0.00 0.03 0.00 86 1016.8
20260510124541 17 0 0.0 0.0 0.00 0.03 0.00 85 1016.4
20260510124027 17 0 0.0 0.0 0.00 0.03 0.00 85 1016.2
20260510123528 17 0 0.0 0.0 0.00 0.03 0.00 84 1015.8
20260510123038 17 0 0.0 0.0 0.00 0.03 0.00 84 1015.7
20260510122529 17 0 0.0 0.0 0.00 0.03 0.00 84 1015.5
20260510122027 17 0 0.0 0.0 0.00 0.03 0.00 84 1015.4
20260510121543 17 0 0.0 0.0 0.00 0.03 0.00 84 1015.1
20260510121027 17 0 0.0 0.0 0.00 0.03 0.00 84 1015.0
20260510120528 17 0 0.0 1.6 0.00 0.03 0.00 84 1015.0
20260510120043 17 0 0.0 1.6 0.00 0.03 0.00 84 1014.8
20260510115527 16 0 0.0 1.6 0.00 0.03 0.00 85 1014.4
20260510115030 16 101 0.0 1.6 0.00 0.03 0.00 84 1014.3
20260510114542 16 101 0.0 1.6 0.00 0.03 0.00 84 1014.1
20260510114029 16 0 0.0 0.0 0.00 0.03 0.00 84 1014.1
20260510113528 16 0 0.0 1.6 0.00 0.03 0.00 83 1014.0
20260510113041 16 0 0.0 1.6 0.00 0.03 0.00 83 1013.7
20260510112528 16 0 0.0 1.6 0.00 0.03 0.00 83 1013.6
20260510112033 16 0 0.0 0.0 0.00 0.03 0.00 83 1013.6
20260510111546 17 0 0.0 0.0 0.00 0.03 0.00 82 1013.7
20260510111030 17 0 0.0 0.0 0.00 0.03 0.00 81 1013.5
20260510110530 17 0 0.0 0.0 0.00 0.03 0.00 80 1013.4
20260510110039 17 0 0.0 0.0 0.00 0.03 0.00 79 1013.5
20260510105529 17 0 0.0 1.6 0.00 0.03 0.00 79 1013.3
20260510105031 17 0 0.0 1.6 0.00 0.03 0.00 78 1013.1
20260510104555 18 0 0.0 1.6 0.00 0.03 0.00 77 1013.2
20260510104029 18 0 0.0 0.0 0.00 0.03 0.00 76 1013.1
20260510103530 18 0 0.0 1.6 0.00 0.03 0.00 76 1013.0
20260510103043 18 0 0.0 3.2 0.00 0.03 0.00 75 1013.0
20260510102530 18 0 0.0 3.2 0.00 0.03 0.00 75 1013.1
20260510102030 18 0 0.0 1.6 0.00 0.03 0.00 75 1013.0
20260510101549 18 0 0.0 9.7 0.00 0.03 0.00 74 1013.0
20260510101028 18 0 0.0 9.7 0.00 0.03 0.00 73 1012.9
20260510100530 18 86 0.0 1.6 0.00 0.03 0.00 72 1013.0
20260510100051 18 0 0.0 3.2 0.00 0.03 0.00 71 1013.0
20260510095533 18 0 0.0 6.4 0.00 0.03 0.00 71 1012.9
20260510095030 18 85 0.0 8.0 0.00 0.03 0.00 70 1012.7
20260510094541 18 88 1.6 8.0 0.00 0.03 0.00 70 1012.7
20260510094029 18 83 3.2 8.0 0.00 0.03 0.00 71 1012.6
20260510093530 18 81 3.2 6.4 0.00 0.03 0.00 72 1012.5
20260510093044 18 85 0.0 4.8 0.00 0.03 0.00 73 1012.6
20260510092529 18 0 0.0 1.6 0.00 0.03 0.00 73 1012.5
20260510092030 18 0 0.0 1.6 0.00 0.03 0.00 72 1012.4
20260510091543 18 0 0.0 1.6 0.00 0.03 0.00 71 1012.4
20260510091029 18 0 0.0 1.6 0.00 0.03 0.00 70 1012.4
20260510090530 19 0 0.0 1.6 0.00 0.03 0.00 70 1012.4
20260510090043 19 0 0.0 0.0 0.00 0.03 0.00 70 1012.5
20260510085528 19 0 0.0 3.2 0.00 0.03 0.00 69 1012.3
20260510085028 19 0 0.0 6.4 0.00 0.03 0.00 69 1012.0
20260510084556 19 44 1.6 6.4 0.00 0.03 0.00 68 1011.8
20260510084029 19 1 1.6 6.4 0.00 0.03 0.00 68 1011.5
20260510083534 20 62 0.0 3.2 0.00 0.03 0.00 68 1011.5
20260510083058 20 359 0.0 3.2 0.00 0.03 0.00 67 1011.1
20260510082529 20 0 0.0 6.4 0.00 0.03 0.00 67 1010.9
20260510082026 20 0 1.6 11.3 0.00 0.03 0.00 67 1010.7
20260510081559 20 0 1.6 11.3 0.00 0.03 0.00 67 1010.4
20260510081027 20 358 6.4 11.3 0.00 0.03 0.00 68 1010.5
20260510080527 20 51 3.2 12.9 0.00 0.03 0.00 69 1010.5
20260510080037 20 24 4.8 12.9 0.00 0.03 0.00 69 1010.0
20260510075530 20 349 4.8 11.3 0.00 0.03 0.00 69 1009.9
20260510075033 20 24 3.2 6.4 0.00 0.03 0.00 69 1009.7
20260510074544 20 0 0.0 12.9 0.00 0.03 0.00 69 1009.4
20260510074030 20 303 3.2 16.1 0.00 0.03 0.00 67 1008.8
20260510073530 20 191 3.2 19.3 0.00 0.03 0.00 67 1008.2
20260510073049 20 67 8.0 19.3 0.00 0.03 0.00 67 1008.8
20260510072527 19 162 4.8 19.3 0.00 0.03 0.00 71 1009.5
20260510072033 19 63 6.4 22.5 0.00 0.03 0.00 72 1011.1
20260510071542 18 0 8.0 22.5 0.00 0.03 0.00 74 1011.2
20260510071029 18 297 3.2 25.7 0.00 0.03 0.00 74 1010.9
20260510070532 19 38 4.8 25.7 0.00 0.03 0.00 72 1011.1
20260510070052 19 74 6.4 25.7 0.00 0.03 0.00 70 1011.0
20260510065530 20 214 8.0 24.1 0.00 0.03 0.00 67 1010.3
20260510065032 20 240 6.4 19.3 0.00 0.03 0.00 65 1010.4
20260510064548 20 0 1.6 8.0 0.00 0.03 0.00 63 1011.9
20260510064029 20 212 0.0 9.7 0.00 0.03 0.00 61 1013.6
20260510063530 21 290 3.2 9.7 0.00 0.03 0.00 60 1014.0
20260510063038 21 193 1.6 9.7 0.00 0.03 0.00 61 1014.0
20260510062530 21 280 0.0 4.8 0.00 0.03 0.00 65 1014.0
20260510062029 21 285 0.0 3.2 0.00 0.03 0.00 66 1013.6
20260510061555 21 215 0.0 1.6 0.00 0.03 0.00 63 1013.3
20260510061030 21 0 0.0 1.6 0.00 0.03 0.00 61 1013.2
20260510060526 21 0 0.0 3.2 0.00 0.03 0.00 60 1013.2
20260510060047 21 0 0.0 4.8 0.00 0.03 0.00 59 1013.3
20260510055530 21 72 0.0 4.8 0.00 0.03 0.00 60 1013.2
20260510055030 21 312 0.0 3.2 0.00 0.03 0.00 60 1013.2
20260510054542 21 0 0.0 3.2 0.00 0.03 0.00 59 1013.2
20260510054029 21 94 1.6 3.2 0.00 0.03 0.00 59 1013.4
20260510053526 21 0 0.0 1.6 0.00 0.03 0.00 59 1013.4
20260510053052 21 89 0.0 1.6 0.00 0.03 0.00 59 1013.6
20260510052528 21 0 0.0 3.2 0.00 0.03 0.00 59 1013.6
20260510052031 21 0 0.0 3.2 0.00 0.03 0.00 59 1013.7
20260510051543 21 0 1.6 6.4 0.00 0.03 0.00 59 1013.6
20260510051031 21 66 1.6 6.4 0.00 0.03 0.00 60 1013.5
20260510050527 21 0 1.6 6.4 0.00 0.03 0.00 62 1013.5
20260510050042 20 0 0.0 3.2 0.00 0.03 0.00 65 1013.2
20260510045529 20 0 0.0 3.2 0.00 0.05 0.03 68 1012.9
20260510045029 20 54 0.0 1.6 0.00 0.05 0.03 70 1012.4
20260510044538 20 0 0.0 1.6 0.00 0.05 0.03 72 1012.3
20260510044030 20 0 0.0 0.0 0.00 0.05 0.03 73 1012.1
20260510043529 20 0 0.0 0.0 0.00 0.05 0.03 73 1012.1
20260510043042 19 0 0.0 0.0 0.00 0.05 0.03 72 1012.0
20260510042530 19 0 0.0 0.0 0.00 0.05 0.03 72 1012.0
20260510042033 19 0 0.0 0.0 0.00 0.05 0.03 72 1011.9
20260510041541 20 0 0.0 0.0 0.00 0.05 0.03 71 1011.8
20260510041034 20 0 0.0 0.0 0.00 0.05 0.03 71 1011.6
20260510040530 20 0 0.0 0.0 0.00 0.05 0.03 70 1011.7
20260510040047 20 0 0.0 0.0 0.00 0.05 0.03 69 1011.7
20260510035530 20 0 0.0 0.0 0.00 0.05 0.03 68 1011.6
20260510035029 20 0 0.0 0.0 0.00 0.05 0.03 69 1011.7
20260510034538 20 0 0.0 0.0 0.00 0.05 0.03 69 1011.5
20260510034030 20 0 0.0 0.0 0.00 0.05 0.03 66 1011.4
20260510033529 20 0 0.0 0.0 0.00 0.05 0.03 66 1011.5
20260510033039 20 0 0.0 0.0 0.00 0.05 0.03 67 1011.4
20260510032529 20 0 0.0 0.0 0.00 0.05 0.03 67 1011.4
20260510032033 20 0 0.0 0.0 0.00 0.05 0.03 66 1011.3
20260510031551 20 0 0.0 0.0 0.00 0.05 0.03 67 1011.5
20260510031029 20 0 0.0 0.0 0.00 0.05 0.03 67 1011.5
20260510030527 20 0 0.0 0.0 0.00 0.05 0.03 66 1011.4
20260510030043 20 0 0.0 0.0 0.00 0.05 0.03 65 1011.4
20260510025529 20 0 0.0 0.0 0.00 0.05 0.03 64 1011.4
20260510025029 21 0 0.0 0.0 0.00 0.05 0.03 61 1011.2
20260510024541 21 0 0.0 0.0 0.00 0.05 0.03 60 1011.2
20260510024028 21 0 0.0 0.0 0.00 0.05 0.03 59 1011.0
20260510023529 21 0 0.0 0.0 0.00 0.05 0.03 59 1010.9
20260510023044 21 0 0.0 0.0 0.00 0.05 0.03 58 1010.6
20260510022528 21 0 0.0 0.0 0.00 0.05 0.03 59 1010.1
20260510022029 21 0 0.0 0.0 0.00 0.05 0.03 60 1009.9
20260510021542 22 0 0.0 0.0 0.00 0.05 0.03 59 1009.8
20260510021029 22 0 0.0 0.0 0.00 0.05 0.03 58 1009.6
20260510020528 22 0 0.0 0.0 0.00 0.05 0.03 56 1009.6
20260510020038 22 0 0.0 0.0 0.00 0.05 0.03 55 1009.5
20260510015531 22 0 0.0 0.0 0.00 0.20 0.03 55 1009.3
20260510015029 23 0 0.0 0.0 0.00 0.20 0.03 54 1009.3
20260510014545 23 0 0.0 0.0 0.00 0.20 0.03 54 1009.2
20260510014029 23 0 0.0 0.0 0.00 0.20 0.03 54 1009.1
20260510013529 23 0 0.0 0.0 0.00 0.20 0.03 54 1009.1
20260510013048 24 0 0.0 0.0 0.00 0.20 0.03 49 1009.1
20260510012526 24 0 0.0 0.0 0.00 0.20 0.03 48 1009.0
20260510012030 25 0 0.0 1.6 0.00 0.20 0.03 46 1008.9
20260510011538 25 0 0.0 1.6 0.00 0.20 0.03 45 1008.9
20260510011028 25 0 0.0 1.6 0.00 0.20 0.03 44 1008.8
20260510010526 25 0 0.0 3.2 0.00 0.20 0.03 43 1008.7
20260510010042 26 0 0.0 4.8 0.00 0.20 0.03 42 1008.7
20260510005530 26 0 0.0 4.8 0.00 0.58 0.03 42 1008.7
20260510005029 26 0 0.0 3.2 0.00 0.58 0.03 40 1008.7
20260510004541 26 0 0.0 4.8 0.00 0.58 0.03 39 1008.7
20260510004029 26 144 1.6 4.8 0.00 0.58 0.03 39 1008.6
20260510003529 26 137 0.0 3.2 0.00 0.58 0.03 38 1008.5
20260510003049 27 0 0.0 4.8 0.00 0.58 0.03 38 1008.4
20260510002529 27 0 1.6 6.4 0.00 0.58 0.03 37 1008.5
20260510002027 27 0 0.0 6.4 0.00 0.58 0.03 37 1008.4
20260510001543 27 140 1.6 11.3 0.00 0.58 0.03 36 1008.5
20260510001029 27 274 1.6 11.3 0.00 0.58 0.03 36 1008.5
20260510000526 27 125 0.0 8.0 0.00 0.58 0.03 37 1008.4
20260510000046 27 0 3.2 8.0 0.00 0.58 0.03 37 1008.5
20260509235527 27 79 3.2 11.3 0.00 0.76 0.03 36 1008.5
20260509235029 27 156 3.2 11.3 0.00 0.76 0.03 35 1008.6
20260509234541 27 124 1.6 11.3 0.00 0.76 0.03 35 1008.6
20260509234030 27 92 1.6 12.9 0.00 0.76 0.03 34 1008.6
20260509233529 27 113 1.6 12.9 0.00 0.76 0.03 33 1008.6
20260509233041 27 184 1.6 8.0 0.00 0.76 0.03 31 1008.6
20260509232529 28 148 3.2 8.0 0.00 0.76 0.03 31 1008.8
20260509232029 28 86 3.2 8.0 0.00 0.76 0.03 30 1008.7
20260509231546 28 82 1.6 9.7 0.00 0.76 0.03 31 1008.8
20260509231029 28 124 1.6 9.7 0.00 0.76 0.03 33 1008.8
20260509230527 28 227 4.8 12.9 0.00 0.76 0.03 31 1008.8
20260509230045 28 0 1.6 12.9 0.00 0.76 0.03 33 1008.8
20260509225532 28 128 3.2 11.3 0.00 0.76 0.03 33 1008.9
20260509225030 29 158 1.6 9.7 0.00 0.76 0.03 34 1008.8
20260509224545 29 174 1.6 8.0 0.00 0.76 0.03 34 1008.9
20260509224028 29 184 1.6 8.0 0.00 0.76 0.03 33 1009.0
20260509223529 30 0 1.6 12.9 0.00 0.76 0.03 32 1009.0
20260509223044 30 115 1.6 12.9 0.00 0.76 0.03 32 1008.9
20260509222526 30 130 3.2 9.7 0.00 0.76 0.03 31 1008.9
20260509222026 30 0 1.6 9.7 0.00 0.76 0.03 33 1008.9
20260509221542 30 139 3.2 11.3 0.00 0.76 0.03 32 1009.0
20260509221029 30 85 3.2 11.3 0.00 0.76 0.03 31 1009.1
20260509220531 30 349 3.2 11.3 0.00 0.76 0.03 30 1009.1
20260509220046 30 210 3.2 11.3 0.00 0.76 0.03 30 1009.0
20260509215529 30 117 4.8 11.3 0.00 0.76 0.03 26 1009.1
20260509215029 30 71 3.2 9.7 0.00 0.76 0.03 26 1009.1
20260509214542 30 175 0.0 8.0 0.00 0.76 0.03 23 1009.2
20260509214031 30 19 1.6 8.0 0.00 0.76 0.03 22 1009.2
20260509213528 31 103 1.6 9.7 0.00 0.76 0.03 22 1009.2
20260509213038 31 141 3.2 9.7 0.00 0.76 0.03 19 1009.3
20260509212528 31 255 3.2 9.7 0.00 0.76 0.03 22 1009.3
20260509212032 30 158 1.6 8.0 0.00 0.76 0.03 25 1009.3
20260509211544 30 134 1.6 8.0 0.00 0.76 0.03 23 1009.4
20260509211030 31 136 3.2 8.0 0.00 0.76 0.03 22 1009.6
20260509210528 31 179 1.6 11.3 0.00 0.76 0.03 25 1009.7
20260509210047 30 127 1.6 11.3 0.00 0.76 0.03 25 1009.7
20260509205527 30 146 3.2 11.3 0.00 0.76 0.03 26 1009.8
20260509205029 30 102 1.6 8.0 0.00 0.76 0.03 25 1009.9
20260509204551 30 252 1.6 8.0 0.00 0.76 0.03 27 1009.9
20260509204029 30 160 0.0 6.4 0.00 0.76 0.03 29 1009.9
20260509203527 30 0 1.6 8.0 0.00 0.76 0.03 29 1010.0
20260509203041 30 0 1.6 8.0 0.00 0.76 0.03 29 1009.9
20260509202529 30 77 1.6 11.3 0.00 0.76 0.03 27 1010.0
20260509202029 29 113 1.6 11.3 0.00 0.76 0.03 32 1009.9
20260509201538 30 80 4.8 11.3 0.00 0.76 0.03 30 1009.9
20260509201029 30 174 3.2 11.3 0.00 0.76 0.03 27 1010.0
20260509200528 30 118 1.6 11.3 0.00 0.76 0.03 29 1010.0
20260509200043 30 150 3.2 11.3 0.00 0.76 0.03 30 1010.0
20260509195529 30 169 1.6 8.0 0.00 0.76 0.03 32 1010.2
20260509195030 30 119 0.0 8.0 0.00 0.76 0.03 32 1010.1
20260509194540 30 103 3.2 11.3 0.00 0.76 0.03 34 1010.4
20260509194031 30 127 4.8 11.3 0.00 0.76 0.03 31 1010.5
20260509193529 30 175 1.6 8.0 0.00 0.76 0.03 33 1010.4
20260509193044 30 121 3.2 8.0 0.00 0.76 0.03 32 1010.5
20260509192529 30 162 3.2 8.0 0.00 0.76 0.03 31 1010.6
20260509192032 30 0 1.6 6.4 0.00 0.76 0.03 35 1010.6
20260509191541 30 156 1.6 9.7 0.00 0.76 0.03 29 1010.5
20260509191028 30 16 1.6 9.7 0.00 0.76 0.03 28 1010.6